FW0267 Weather Reports


time (UTC)temp
C
wind
direction
speed
KPH
gust
KPH
rain 1hr
cm
rain 24hr
cm
rain mn
cm
humidity
%
barometer
mb
20260904131608 -17 117 0.0 3.2 0.00 0.00 0.00 1014.5
20260904131058 -17 122 0.0 3.2 0.00 0.00 0.00 1014.5
20260904130556 -17 110 0.0 1.6 0.00 0.00 0.00 1014.6
20260904130054 -17 110 0.0 1.6 0.00 0.00 0.00 1014.6
20260904125553 -17 110 0.0 3.2 0.00 0.00 0.00 1014.6
20260904125052 -17 106 0.0 3.2 0.00 0.00 0.00 1014.6
20260904124550 -17 129 0.0 3.2 0.00 0.00 0.00 1014.5
20260904124047 -17 134 0.0 0.0 0.00 0.00 0.00 1014.6
20260904123547 -17 134 0.0 3.2 0.00 0.00 0.00 1014.6
20260904123045 -17 134 0.0 3.2 0.00 0.00 0.00 1014.7
20260904122543 -17 125 0.0 3.2 0.00 0.00 0.00 1014.7
20260904122042 -17 130 0.0 3.2 0.00 0.00 0.00 1014.8
20260904121541 -17 136 0.0 1.6 0.00 0.00 0.00 1014.7
20260904121043 -17 136 0.0 3.2 0.00 0.00 0.00 1014.6
20260904120537 -17 136 0.0 3.2 0.00 0.00 0.00 1014.7
20260904120037 -17 130 0.0 3.2 0.00 0.00 0.00 1014.7
20260904115535 -17 135 1.6 3.2 0.00 0.00 0.00 1014.6
20260904115038 -17 115 0.0 0.0 0.00 0.00 0.00 1014.6
20260904114532 -17 114 0.0 0.0 0.00 0.00 0.00 1014.6
20260904114031 -17 114 0.0 3.2 0.00 0.00 0.00 1014.7
20260904113530 -17 114 0.0 3.2 0.00 0.00 0.00 1014.6
20260904113039 -17 122 0.0 3.2 0.00 0.00 0.00 1014.5
20260904112526 -17 103 0.0 1.6 0.00 0.00 0.00 1014.6
20260904112024 -17 129 0.0 0.0 0.00 0.00 0.00 1014.6
20260904111534 -17 129 0.0 1.6 0.00 0.00 0.00 1014.6
20260904111022 -17 129 0.0 3.2 0.00 0.00 0.00 1014.6
20260904110521 -17 125 0.0 3.2 0.00 0.00 0.00 1014.6
20260904110020 -17 124 1.6 3.2 0.00 0.00 0.00 1014.6
20260904105518 -17 122 1.6 3.2 0.00 0.00 0.00 1014.5
20260904105016 -17 111 0.0 0.0 0.00 0.00 0.00 1014.6
20260904104515 -17 111 0.0 1.6 0.00 0.00 0.00 1014.5
20260904104016 -17 111 0.0 1.6 0.00 0.00 0.00 1014.5
20260904103511 -17 114 0.0 3.2 0.00 0.00 0.00 1014.5
20260904103011 -17 115 0.0 1.6 0.00 0.00 0.00 1014.4
20260904102511 -17 113 0.0 1.6 0.00 0.00 0.00 1014.4
20260904102008 -17 109 0.0 1.6 0.00 0.00 0.00 1014.4
20260904101506 -17 109 0.0 1.6 0.00 0.00 0.00 1014.5
20260904101004 -17 104 0.0 1.6 0.00 0.00 0.00 1014.5
20260904100505 -17 107 0.0 1.6 0.00 0.00 0.00 1014.6
20260904100002 -17 101 0.0 1.6 0.00 0.00 0.00 1014.5
20260904095503 -17 121 0.0 0.0 0.00 0.00 0.00 1014.4
20260904095059 -17 121 0.0 3.2 0.00 0.00 0.00 1014.4
20260904094607 -17 121 0.0 3.2 0.00 0.00 0.00 1014.5
20260904094055 -17 107 0.0 3.2 0.00 0.00 0.00 1014.5
20260904093556 -17 117 0.0 3.2 0.00 0.00 0.00 1014.6
20260904093054 -17 113 0.0 1.6 0.00 0.00 0.00 1014.6
20260904092551 -17 109 0.0 1.6 0.00 0.00 0.00 1014.6
20260904092050 -17 109 0.0 1.6 0.00 0.00 0.00 1014.7
20260904091604 -17 105 0.0 3.2 0.00 0.00 0.00 1014.7
20260904091050 -17 81 0.0 3.2 0.00 0.00 0.00 1014.7
20260904090545 -17 111 0.0 3.2 0.00 0.00 0.00 1014.7
20260904090044 -17 96 0.0 1.6 0.00 0.00 0.00 1014.8
20260904085543 -17 101 0.0 0.0 0.00 0.00 0.00 1014.7
20260904085042 -17 101 0.0 1.6 0.00 0.00 0.00 1014.7
20260904084540 -17 60 0.0 3.2 0.00 0.00 0.00 1014.7
20260904084038 -17 96 0.0 3.2 0.00 0.00 0.00 1014.6
20260904083538 -17 112 1.6 3.2 0.00 0.00 0.00 1014.6
20260904083042 -17 113 0.0 1.6 0.00 0.00 0.00 1014.5
20260904082534 -17 130 0.0 3.2 0.00 0.00 0.00 1014.5
20260904082033 -17 130 0.0 4.8 0.00 0.00 0.00 1014.4
20260904081531 -17 130 0.0 3.2 0.00 0.00 0.00 1014.4
20260904081032 -17 122 1.6 3.2 0.00 0.00 0.00 1014.5
20260904080531 -17 136 1.6 3.2 0.00 0.00 0.00 1014.5
20260904080027 -17 112 0.0 0.0 0.00 0.00 0.00 1014.6
20260904075526 -17 112 0.0 1.6 0.00 0.00 0.00 1014.4
20260904075024 -17 112 0.0 3.2 0.00 0.00 0.00 1014.3
20260904074522 -17 131 1.6 3.2 0.00 0.00 0.00 1014.3
20260904074021 -17 91 0.0 3.2 0.00 0.00 0.00 1014.3
20260904073520 -17 98 0.0 3.2 0.00 0.00 0.00 1014.2
20260904073022 -17 93 0.0 1.6 0.00 0.00 0.00 1014.1
20260904072517 -17 93 0.0 3.2 0.00 0.00 0.00 1014.2
20260904072018 -17 97 0.0 3.2 0.00 0.00 0.00 1014.2
20260904071514 -17 129 1.6 3.2 0.00 0.00 0.00 1014.2
20260904071012 -17 128 0.0 3.2 0.00 0.00 0.00 1014.2
20260904070513 -17 130 0.0 3.2 0.00 0.00 0.00 1014.3
20260904070010 -17 109 0.0 3.2 0.00 0.00 0.00 1014.4
20260904065507 -17 109 0.0 3.2 0.00 0.00 0.00 1014.4
20260904065006 -17 109 0.0 3.2 0.00 0.00 0.00 1014.3
20260904064508 -17 68 1.6 3.2 0.00 0.00 0.00 1014.4
20260904064007 -17 102 0.0 3.2 0.00 0.00 0.00 1014.1
20260904063504 -17 136 0.0 1.6 0.00 0.00 0.00 1014.1
20260904063108 -17 136 0.0 3.2 0.00 0.00 0.00 1014.5
20260904062558 -17 136 0.0 3.2 0.00 0.00 0.00 1014.4
20260904062057 -17 124 0.0 4.8 0.00 0.00 0.00 1014.9
20260904061556 -17 38 1.6 4.8 0.00 0.00 0.00 1014.8
20260904061054 -17 80 1.6 4.8 0.00 0.00 0.00 1014.5
20260904060555 -17 84 1.6 4.8 0.00 0.00 0.00 1015.1
20260904055552 -17 126 0.0 3.2 0.00 0.00 0.00 1014.3
20260904055050 -17 144 0.0 3.2 0.00 0.00 0.00 1014.3
20260904054557 -17 136 0.0 3.2 0.00 0.00 0.00 1014.3
20260904054046 -17 122 0.0 3.2 0.00 0.00 0.00 1014.3
20260904053545 -17 154 0.0 1.6 0.00 0.00 0.00 1014.2
20260904053046 -17 140 0.0 3.2 0.00 0.00 0.00 1014.3
20260904052542 -17 132 0.0 3.2 0.00 0.00 0.00 1014.3
20260904052040 -17 166 0.0 3.2 0.00 0.00 0.00 1014.3
20260904051539 -17 154 0.0 3.2 0.00 0.00 0.00 1014.5
20260904051039 -17 138 0.0 3.2 0.00 0.00 0.00 1014.6
20260904050535 -17 150 0.0 3.2 0.00 0.00 0.00 1014.7
20260904050038 -17 132 0.0 3.2 0.00 0.00 0.00 1014.6
20260904045534 -17 137 0.0 3.2 0.00 0.00 0.00 1014.7
20260904045031 -17 136 0.0 3.2 0.00 0.00 0.00 1014.7
20260904044530 -17 146 0.0 3.2 0.00 0.00 0.00 1014.7
20260904044028 -17 130 1.6 4.8 0.00 0.00 0.00 1014.8
20260904043528 -17 132 1.6 4.8 0.00 0.00 0.00 1014.9
20260904043039 -17 132 0.0 1.6 0.00 0.00 0.00 1014.7
20260904042527 -17 132 0.0 3.2 0.00 0.00 0.00 1014.7
20260904042023 -17 132 0.0 3.2 0.00 0.00 0.00 1014.9
20260904041520 -17 132 0.0 3.2 0.00 0.00 0.00 1014.9
20260904041020 -17 99 0.0 3.2 0.00 0.00 0.00 1014.9
20260904040518 -17 111 0.0 3.2 0.00 0.00 0.00 1014.8
20260904040023 -17 113 0.0 3.2 0.00 0.00 0.00 1014.8
20260904035518 -17 125 0.0 3.2 0.00 0.00 0.00 1014.7
20260904035014 -17 125 0.0 3.2 0.00 0.00 0.00 1014.8
20260904034512 -17 111 1.6 3.2 0.00 0.00 0.00 1015.0
20260904034011 -17 115 0.0 3.2 0.00 0.00 0.00 1015.1
20260904033514 -17 119 0.0 3.2 0.00 0.00 0.00 1015.2
20260904033020 -17 76 0.0 3.2 0.00 0.00 0.00 1015.3
20260904032506 -17 102 0.0 3.2 0.00 0.00 0.00 1015.1
20260904032004 -17 102 0.0 3.2 0.00 0.00 0.00 1015.0
20260904031504 -17 115 0.0 3.2 0.00 0.00 0.00 1015.0
20260904031002 -17 105 0.0 3.2 0.00 0.00 0.00 1015.1
20260904030603 -17 98 0.0 1.6 0.00 0.00 0.00 1015.0
20260904030059 -17 75 0.0 3.2 0.00 0.00 0.00 1014.9
20260904025558 -17 111 0.0 3.2 0.00 0.00 0.00 1015.0
20260904025056 -17 148 0.0 4.8 0.00 0.00 0.00 1014.9
20260904024600 -17 105 0.0 1.6 0.00 0.00 0.00 1014.9
20260904024057 -17 102 0.0 3.2 0.00 0.00 0.00 1014.9
20260904023552 -17 105 0.0 3.2 0.00 0.00 0.00 1015.0
20260904023051 -17 107 0.0 3.2 0.00 0.00 0.00 1014.9
20260904022549 -17 123 0.0 3.2 0.00 0.00 0.00 1015.0
20260904022048 -17 113 0.0 1.6 0.00 0.00 0.00 1014.9
20260904021547 -17 117 0.0 3.2 0.00 0.00 0.00 1014.8
20260904021045 -17 117 0.0 3.2 0.00 0.00 0.00 1014.9
20260904020546 -17 128 0.0 3.2 0.00 0.00 0.00 1014.9
20260904020042 -17 102 0.0 3.2 0.00 0.00 0.00 1015.0
20260904015540 -17 132 1.6 3.2 0.00 0.00 0.00 1015.1
20260904015042 -17 113 0.0 1.6 0.00 0.00 0.00 1015.1
20260904014610 -17 109 0.0 3.2 0.00 0.00 0.00 1015.2
20260904014036 -17 113 0.0 3.2 0.00 0.00 0.00 1015.2
20260904013535 -17 115 0.0 3.2 0.00 0.00 0.00 1015.3
20260904013040 -17 129 1.6 3.2 0.00 0.00 0.00 1015.3
20260904012532 -17 122 0.0 1.6 0.00 0.00 0.00 1015.4
20260904012030 -17 101 0.0 3.2 0.00 0.00 0.00 1015.4
20260904011530 -17 117 0.0 3.2 0.00 0.00 0.00 1015.3
20260904011027 -17 115 0.0 3.2 0.00 0.00 0.00 1015.4
20260904010526 -17 130 1.6 3.2 0.00 0.00 0.00 1015.5
20260904010025 -17 107 0.0 3.2 0.00 0.00 0.00 1015.5
20260904005524 -17 114 0.0 3.2 0.00 0.00 0.00 1015.5
20260904005021 -17 57 0.0 1.6 0.00 0.00 0.00 1015.5
20260904004520 -17 83 0.0 1.6 0.00 0.00 0.00 1015.4
20260904004018 -17 113 0.0 1.6 0.00 0.00 0.00 1015.3
20260904003517 -17 121 0.0 1.6 0.00 0.00 0.00 1015.3
20260904003020 -17 64 0.0 3.2 0.00 0.00 0.00 1015.4
20260904002514 -17 84 0.0 4.8 0.00 0.00 0.00 1015.3
20260904002013 -17 124 1.6 4.8 0.00 0.00 0.00 1015.2
20260904001511 -17 106 0.0 3.2 0.00 0.00 0.00 1015.2
20260904001011 -17 127 0.0 3.2 0.00 0.00 0.00 1015.1
20260904000508 -17 121 0.0 1.6 0.00 0.00 0.00 1015.0
20260904000007 -17 98 0.0 3.2 0.00 0.00 0.00 1014.9
20260903235505 -17 80 0.0 3.2 0.00 0.00 0.00 1014.8
20260903235003 -17 119 1.6 3.2 0.00 0.00 0.00 1014.7
20260903234501 -17 112 0.0 3.2 0.00 0.00 0.00 1014.7
20260903234100 -17 80 0.0 3.2 0.00 0.00 0.00 1014.7
20260903233602 -17 109 0.0 3.2 0.00 0.00 0.00 1014.6
20260903233101 -17 115 0.0 3.2 0.00 0.00 0.00 1014.6
20260903232555 -17 113 0.0 1.6 0.00 0.00 0.00 1014.6
20260903232054 -17 100 0.0 1.6 0.00 0.00 0.00 1014.6
20260903231553 -17 44 0.0 1.6 0.00 0.00 0.00 1014.6
20260903231051 -17 101 0.0 3.2 0.00 0.00 0.00 1014.5
20260903230549 -17 111 0.0 3.2 0.00 0.00 0.00 1014.4
20260903230050 -17 143 0.0 1.6 0.00 0.00 0.00 1014.5
20260903225548 -17 107 0.0 1.6 0.00 0.00 0.00 1014.4
20260903225045 -17 17 0.0 3.2 0.00 0.00 0.00 1014.4
20260903224544 -17 117 0.0 3.2 0.00 0.00 0.00 1014.2
20260903224042 -17 119 0.0 3.2 0.00 0.00 0.00 1014.4
20260903223541 -17 96 0.0 3.2 0.00 0.00 0.00 1014.5
20260903223041 -17 94 0.0 1.6 0.00 0.00 0.00 1014.3
20260903222537 -17 96 0.0 1.6 0.00 0.00 0.00 1014.3
20260903222036 -17 109 0.0 1.6 0.00 0.00 0.00 1014.5
20260903221537 -17 116 0.0 3.2 0.00 0.00 0.00 1014.5
20260903221034 -17 119 0.0 3.2 0.00 0.00 0.00 1014.4
20260903220533 -17 125 0.0 3.2 0.00 0.00 0.00 1014.5
20260903220033 -17 113 0.0 3.2 0.00 0.00 0.00 1014.6
20260903215533 -17 88 0.0 3.2 0.00 0.00 0.00 1014.7
20260903215032 -17 107 0.0 3.2 0.00 0.00 0.00 1014.7
20260903214539 -17 109 0.0 3.2 0.00 0.00 0.00 1014.5
20260903214031 -17 188 0.0 3.2 0.00 0.00 0.00 1014.6
20260903213531 -17 131 1.6 3.2 0.00 0.00 0.00 1014.5
20260903213029 -17 127 0.0 3.2 0.00 0.00 0.00 1014.5
20260903212527 -17 134 1.6 4.8 0.00 0.00 0.00 1014.5
20260903212025 -17 117 1.6 4.8 0.00 0.00 0.00 1014.6
20260903211524 -17 121 0.0 4.8 0.00 0.00 0.00 1014.6
20260903211023 -17 128 1.6 8.0 0.00 0.00 0.00 1014.7
20260903210521 -17 137 1.6 8.0 0.00 0.00 0.00 1014.8
20260903210021 -17 121 1.6 4.8 0.00 0.00 0.00 1014.8
20260903205520 -17 151 1.6 3.2 0.00 0.00 0.00 1014.8
20260903205017 -17 127 1.6 4.8 0.00 0.00 0.00 1014.7
20260903204515 -17 116 1.6 4.8 0.00 0.00 0.00 1014.8
20260903204017 -17 150 1.6 6.4 0.00 0.00 0.00 1014.8
20260903203512 -17 119 1.6 6.4 0.00 0.00 0.00 1014.9
20260903203011 -17 152 1.6 6.4 0.00 0.00 0.00 1015.0
20260903202509 -17 114 1.6 4.8 0.00 0.00 0.00 1015.0
20260903202008 -17 130 1.6 4.8 0.00 0.00 0.00 1015.1
20260903201507 -17 131 1.6 4.8 0.00 0.00 0.00 1015.2
20260903201006 -17 115 0.0 4.8 0.00 0.00 0.00 1015.1
20260903200504 -17 120 1.6 6.4 0.00 0.00 0.00 1015.4
20260903200003 -17 117 1.6 6.4 0.00 0.00 0.00 1015.4
20260903195501 -17 111 0.0 3.2 0.00 0.00 0.00 1015.5
20260903195059 -17 95 1.6 3.2 0.00 0.00 0.00 1015.5
20260903194559 -17 109 0.0 3.2 0.00 0.00 0.00 1015.6
20260903194056 -17 64 1.6 3.2 0.00 0.00 0.00 1015.6
20260903193555 -17 134 1.6 3.2 0.00 0.00 0.00 1015.7
20260903193054 -17 98 0.0 3.2 0.00 0.00 0.00 1015.6
20260903192553 -17 109 0.0 4.8 0.00 0.00 0.00 1015.7
20260903192051 -17 140 0.0 4.8 0.00 0.00 0.00 1015.7
20260903191549 -17 128 1.6 4.8 0.00 0.00 0.00 1015.7
20260903191048 -17 137 1.6 4.8 0.00 0.00 0.00 1015.8
20260903190546 -17 101 1.6 4.8 0.00 0.00 0.00 1016.0
20260903190045 -17 124 1.6 6.4 0.00 0.00 0.00 1016.0
20260903185543 -17 109 3.2 6.4 0.00 0.00 0.00 1016.1
20260903185042 -17 116 1.6 4.8 0.00 0.00 0.00 1016.2
20260903184549 -17 86 0.0 4.8 0.00 0.00 0.00 1016.2
20260903184039 -17 78 0.0 4.8 0.00 0.00 0.00 1016.4
20260903183537 -17 140 0.0 3.2 0.00 0.00 0.00 1016.5
20260903183038 -17 78 0.0 3.2 0.00 0.00 0.00 1016.6
20260903182535 -17 119 0.0 3.2 0.00 0.00 0.00 1016.5
20260903182034 -17 81 0.0 3.2 0.00 0.00 0.00 1016.6
20260903181532 -17 99 0.0 3.2 0.00 0.00 0.00 1016.6
20260903181035 -17 360 0.0 4.8 0.00 0.00 0.00 1016.6
20260903180530 -17 123 1.6 4.8 0.00 0.00 0.00 1016.7
20260903180028 -17 108 0.0 4.8 0.00 0.00 0.00 1016.9
20260903175530 -17 111 1.6 4.8 0.00 0.00 0.00 1016.9
20260903175028 -17 123 1.6 4.8 0.00 0.00 0.00 1016.9
20260903174534 -17 355 0.0 4.8 0.00 0.00 0.00 1016.9
20260903174025 -17 103 0.0 4.8 0.00 0.00 0.00 1016.9
20260903173527 -17 84 1.6 3.2 0.00 0.00 0.00 1017.0
20260903173034 -17 82 0.0 3.2 0.00 0.00 0.00 1017.0
20260903172520 -17 69 0.0 4.8 0.00 0.00 0.00 1016.9
20260903172020 -17 82 1.6 4.8 0.00 0.00 0.00 1017.1
20260903171518 -17 115 1.6 4.8 0.00 0.00 0.00 1017.0
20260903171016 -17 138 1.6 4.8 0.00 0.00 0.00 1017.0
20260903170515 -17 132 1.6 4.8 0.00 0.00 0.00 1017.1
20260903170018 -17 142 1.6 4.8 0.00 0.00 0.00 1017.1
20260903165511 -17 84 0.0 4.8 0.00 0.00 0.00 1017.1
20260903165013 -17 78 1.6 4.8 0.00 0.00 0.00 1017.1
20260903164509 -17 319 1.6 4.8 0.00 0.00 0.00 1017.2
20260903164007 -17 107 1.6 6.4 0.00 0.00 0.00 1017.3
20260903163505 -17 29 1.6 6.4 0.00 0.00 0.00 1017.2
20260903163005 -17 73 1.6 4.8 0.00 0.00 0.00 1017.3
20260903162502 -17 155 1.6 4.8 0.00 0.00 0.00 1017.3
20260903162003 -17 71 1.6 9.7 0.00 0.00 0.00 1017.4
20260903161601 -17 109 1.6 9.7 0.00 0.00 0.00 1017.4
20260903161103 -17 114 1.6 4.8 0.00 0.00 0.00 1017.5
20260903160557 -17 82 1.6 6.4 0.00 0.00 0.00 1017.4
20260903160055 -17 30 1.6 6.4 0.00 0.00 0.00 1017.6
20260903155558 -17 153 0.0 4.8 0.00 0.00 0.00 1017.6
20260903155053 -17 14 1.6 4.8 0.00 0.00 0.00 1017.8
20260903154551 -17 146 1.6 4.8 0.00 0.00 0.00 1017.7
20260903154050 -17 355 0.0 6.4 0.00 0.00 0.00 1017.9
20260903153547 -17 321 1.6 6.4 0.00 0.00 0.00 1018.0
20260903153051 -17 92 0.0 6.4 0.00 0.00 0.00 1017.9
20260903152545 -17 118 0.0 4.8 0.00 0.00 0.00 1017.9
20260903152047 -17 129 1.6 4.8 0.00 0.00 0.00 1018.0
20260903151542 -17 326 1.6 4.8 0.00 0.00 0.00 1018.0
20260903151041 -17 87 0.0 3.2 0.00 0.00 0.00 1017.9
20260903150539 -17 87 0.0 3.2 0.00 0.00 0.00 1018.0
20260903150038 -17 101 0.0 4.8 0.00 0.00 0.00 1017.9
20260903145536 -17 5 1.6 6.4 0.00 0.00 0.00 1017.9
20260903145035 -17 113 1.6 4.8 0.00 0.00 0.00 1017.7
20260903144534 -17 24 0.0 4.8 0.00 0.00 0.00 1017.8
20260903144033 -17 126 0.0 9.7 0.00 0.00 0.00 1017.6
20260903143530 -17 336 3.2 9.7 0.00 0.00 0.00 1017.7
20260903143028 -17 105 0.0 3.2 0.00 0.00 0.00 1017.3
20260903142527 -17 59 0.0 1.6 0.00 0.00 0.00 1017.3
20260903142028 -17 94 0.0 1.6 0.00 0.00 0.00 1017.3
20260903141524 -17 119 0.0 1.6 0.00 0.00 0.00 1017.3
20260903141023 -17 119 0.0 3.2 0.00 0.00 0.00 1017.4
20260903140522 -17 117 1.6 3.2 0.00 0.00 0.00 1017.3
20260903140036 -17 97 0.0 3.2 0.00 0.00 0.00 1017.4
20260903135519 -17 141 0.0 3.2 0.00 0.00 0.00 1017.3
20260903135022 -17 115 0.0 4.8 0.00 0.00 0.00 1017.3
20260903134520 -17 116 0.0 4.8 0.00 0.00 0.00 1017.3
20260903134021 -17 106 0.0 4.8 0.00 0.00 0.00 1017.4
20260903133512 -17 110 1.6 3.2 0.00 0.00 0.00 1017.4
20260903133012 -17 109 0.0 3.2 0.00 0.00 0.00 1017.4
20260903132510 -17 121 0.0 3.2 0.00 0.00 0.00 1017.4
20260903132010 -17 120 0.0 1.6 0.00 0.00 0.00 1017.5